Showing default

ESSA 7 (TOS-E), 3345

Orbit data source: Space-Track

ESSA 7 (TOS-E), 3345 is a payload satellite owned by ESSA (US) in SSO that was launched on Fri, 16 Aug 1968 UTC via a THOR DELTA N launch vehicle from the Air Force Western Test Range (AFWTR). Payload-class satellites include a variety of spacecraft equipped with specific instruments for various scientific and technological missions. These include communications satellites like Starlink; space stations such as the ISS; scientific satellites like the Hubble; Earth observation satellites from companies like Planet Labs, Umbra, and HawkEye 360; GPS; miniature CubeSats for education and research; and military/defense satellites.

Loading next visibility...
Identifier
3345, 1968-069A
Orbit
SSO
Last TLE update
8 hours ago
Origin
Manufacturer
RCA/East Windsor
Mission
Non-operational Civil Weather
Bus & Motor
TIROS I, Unknown motor
Mass
154 kg wet, 154 kg dry
Launch date (UTC)
1968-08-16 (57 years ago)
Launch vehicle
THOR DELTA N
Launch site
Air Force Western Test Range (AFWTR)
Object type
Payload
Rocket body
Debris
Shape & HBR
Cyl, 1.07 m
Radar Cross Section
0.920 m², Medium (>0.1 m² and < 1m²)

Expand to show TLE details & history

TLE from 8 hours ago
0 ESSA 7 (TOS-E)
1 03345U 68069A   25186.91761674 -.00000030  00000-0  85113-4 0  9993
2 03345 101.5039 158.2194 0027097 122.0227 301.0948 12.53004133601618
Epoch: 2025-07-05T22:01Z
TLE epoch observation values (Epoch: 2025-07-05T22:01:22.086Z)
Latitude
60.77631°
Longitude
-117.49562°
Altitude
1,451.23 km
Speed
7.147 km/s
True Right ascension
09h 07m 58s
True Declination
60° 38' 33"
Sunlit
Object was in daylight at epoch
Visualization orbit readout
Latitude
48.10662°
Longitude
-109.01308°
Altitude
1,452.665 km
Speed
7.143 km/s
Apparent Right ascension
07h 42m 42s
Apparent Declination
11° 17' 14"
Sunlit
Object is in daylight
Visualization observer readout
Local Sidereal Time
17:34:19
Azimuth
322.669° NNW
Elevation
-30.771°
Doppler factor
1
Orbital elements
Apogee altitude
1,470.694 km
Perigee altitude
1,428.273 km
Semi-major axis
7,827.62 km
Eccentricity
0.00271
Inclination
101.5039°
RAAN
158.2194°
Arg. of periapsis
122.0227°
True anomaly
Unknown
Mean anomaly
301.0948°
Eccentric anomaly
Unknown
Mean motion
3.134 °/min
Orbital period
114.87 mins
BSTAR
0.000085113
Loading maneuver chart data...
Loading SW <> Apogee altitude chart data...
Loading historical data...
Loading historical data...
Loading historical data...
Loading historical data...
Loading historical data...
Loading historical data...
Loading historical data...

ESSA 7 (TOS-E) Visibility forecast

Observer location: undefined°, undefined°

Span
Click to sort rows by Start time (UTC) header in descending order
Start Az.
Max El. time (UTC)
Max El. Az.
Max El.
End time (UTC)
End Az.
13 mins2025-07-06 09:49:57.294Z39.605° NE2025-07-06 09:56:57.294Z101.966° ESE26.371°2025-07-06 10:02:57.294Z152.266° SSE
14 mins2025-07-06 11:42:57.294Z7.359° NNE2025-07-06 11:49:57.294Z285.561° WNW40.442°2025-07-06 11:56:57.294Z218.82° SW
4 mins2025-07-06 13:38:57.294Z328.434° NNW2025-07-06 13:40:57.294Z313.211° NW12.463°2025-07-06 13:42:57.294Z298.13° NW
13 mins2025-07-06 20:49:57.294Z119.82° SE2025-07-06 20:55:57.294Z54.948° ENE32.938°2025-07-06 21:02:57.294Z356.511° N
14 mins2025-07-06 22:41:57.294Z193.206° SSW2025-07-06 22:47:57.294Z253.882° W35.621°2025-07-06 22:55:57.294Z330.727° NNW
|